| time (UTC) | temp F | wind direction | speed MPH | gust MPH | rain 1hr in | rain 24hr in | rain mn in | humidity % | barometer mb |
| 20260504021502 | 64 | 240 | 4.0 | 7.0 | 0.00 | 0.00 | 0.00 | 50 | 1016.0 |
| 20260504020058 | 65 | 239 | 5.0 | 10.0 | 0.00 | 0.00 | 0.00 | 48 | 1016.0 |
| 20260504014613 | 65 | 239 | 5.0 | 9.0 | 0.00 | 0.00 | 0.00 | 49 | 1016.0 |
| 20260504013055 | 65 | 231 | 5.0 | 10.0 | 0.00 | 0.00 | 0.00 | 48 | 1016.0 |
| 20260504011559 | 65 | 233 | 5.0 | 9.0 | 0.00 | 0.00 | 0.00 | 50 | 1016.1 |
| 20260504010023 | 66 | 235 | 6.0 | 10.0 | 0.00 | 0.00 | 0.00 | 48 | 1016.1 |
| 20260504004523 | 66 | 234 | 6.0 | 13.0 | 0.00 | 0.00 | 0.00 | 47 | 1016.1 |
| 20260504003058 | 67 | 228 | 7.0 | 12.0 | 0.00 | 0.00 | 0.00 | 46 | 1016.1 |
| 20260504001553 | 67 | 216 | 9.0 | 14.0 | 0.00 | 0.00 | 0.00 | 45 | 1016.1 |
| 20260504000048 | 68 | 233 | 10.0 | 18.0 | 0.00 | 0.00 | 0.00 | 46 | 1016.1 |
| 20260503234548 | 68 | 226 | 7.0 | 14.0 | 0.00 | 0.00 | 0.00 | 48 | 1016.1 |
| 20260503233042 | 68 | 359 | 7.0 | 14.0 | 0.00 | 0.00 | 0.00 | 48 | 1016.1 |
| 20260503231542 | 69 | 221 | 9.0 | 18.0 | 0.00 | 0.00 | 0.00 | 46 | 1016.1 |
| 20260503230041 | 68 | 241 | 6.0 | 11.0 | 0.00 | 0.00 | 0.00 | 50 | 1016.2 |
| 20260503224536 | 68 | 224 | 6.0 | 10.0 | 0.00 | 0.00 | 0.00 | 49 | 1016.2 |
| 20260503223035 | 68 | 215 | 8.0 | 12.0 | 0.00 | 0.00 | 0.00 | 49 | 1016.3 |
| 20260503221533 | 68 | 217 | 6.0 | 9.0 | 0.00 | 0.00 | 0.00 | 53 | 1016.2 |
| 20260503220043 | 69 | 359 | 8.0 | 12.0 | 0.00 | 0.00 | 0.00 | 52 | 1016.2 |
| 20260503214526 | 68 | 226 | 5.0 | 8.0 | 0.00 | 0.00 | 0.00 | 58 | 1016.2 |
| 20260503213025 | 68 | 206 | 5.0 | 8.0 | 0.00 | 0.00 | 0.00 | 62 | 1016.2 |
| 20260503211520 | 66 | 197 | 4.0 | 7.0 | 0.00 | 0.00 | 0.00 | 69 | 1016.2 |
| 20260503210013 | 65 | 205 | 2.0 | 4.0 | 0.00 | 0.00 | 0.00 | 73 | 1016.1 |
| 20260503204511 | 65 | 206 | 2.0 | 6.0 | 0.00 | 0.00 | 0.00 | 73 | 1016.0 |
| 20260503203020 | 65 | 205 | 2.0 | 6.0 | 0.00 | 0.00 | 0.00 | 73 | 1016.1 |
| 20260503201515 | 65 | 202 | 4.0 | 6.0 | 0.00 | 0.00 | 0.00 | 73 | 1016.1 |
| 20260503200010 | 66 | 175 | 3.0 | 4.0 | 0.00 | 0.00 | 0.00 | 74 | 1016.0 |
| 20260503194542 | 66 | 179 | 3.0 | 4.0 | 0.00 | 0.00 | 0.00 | 73 | 1015.9 |
| 20260503193043 | 66 | 141 | 2.0 | 4.0 | 0.00 | 0.00 | 0.00 | 73 | 1015.8 |
| 20260503191537 | 66 | 170 | 3.0 | 5.0 | 0.00 | 0.00 | 0.00 | 73 | 1015.9 |
| 20260503190036 | 67 | 182 | 3.0 | 9.0 | 0.00 | 0.00 | 0.00 | 73 | 1015.8 |
| 20260503184539 | 67 | 157 | 6.0 | 9.0 | 0.00 | 0.00 | 0.00 | 72 | 1015.7 |
| 20260503183051 | 67 | 155 | 4.0 | 9.0 | 0.00 | 0.00 | 0.00 | 71 | 1015.7 |
| 20260503181532 | 67 | 134 | 6.0 | 10.0 | 0.00 | 0.00 | 0.00 | 69 | 1015.6 |
| 20260503180033 | 66 | 136 | 7.0 | 10.0 | 0.00 | 0.00 | 0.00 | 69 | 1015.6 |
| 20260503174532 | 67 | 141 | 6.0 | 10.0 | 0.00 | 0.00 | 0.00 | 71 | 1015.5 |
| 20260503173032 | 67 | 133 | 9.0 | 12.0 | 0.00 | 0.00 | 0.00 | 70 | 1015.5 |
| 20260503171529 | 66 | 137 | 7.0 | 10.0 | 0.00 | 0.00 | 0.00 | 73 | 1015.6 |
| 20260503081615 | 63 | 56 | 3.0 | 5.0 | 0.00 | 0.00 | 0.00 | 69 | 1018.8 |
| 20260503071537 | 62 | 266 | 3.0 | 7.0 | 0.00 | 0.00 | 0.00 | 64 | 1018.9 |
| 20260503060104 | 57 | 256 | 3.0 | 6.0 | 0.00 | 0.00 | 0.00 | 69 | 1018.7 |
| 20260503054605 | 56 | 264 | 4.0 | 8.0 | 0.00 | 0.00 | 0.00 | 70 | 1018.8 |
| 20260503053100 | 56 | 262 | 7.0 | 9.0 | 0.00 | 0.00 | 0.00 | 70 | 1018.6 |
| 20260503051558 | 55 | 263 | 7.0 | 9.0 | 0.00 | 0.00 | 0.00 | 71 | 1018.7 |
| 20260503050055 | 55 | 255 | 7.0 | 10.0 | 0.00 | 0.00 | 0.00 | 69 | 1018.7 |
| 20260503044559 | 55 | 244 | 5.0 | 9.0 | 0.00 | 0.00 | 0.00 | 69 | 1018.7 |
| 20260503043054 | 55 | 253 | 6.0 | 9.0 | 0.00 | 0.00 | 0.00 | 70 | 1018.6 |
| 20260503041552 | 55 | 252 | 2.0 | 4.0 | 0.00 | 0.00 | 0.00 | 72 | 1018.6 |
| 20260503040020 | 56 | 252 | 0.0 | 1.0 | 0.00 | 0.00 | 0.00 | 71 | 1018.5 |
| 20260503034532 | 55 | 253 | 1.0 | 3.0 | 0.00 | 0.00 | 0.00 | 70 | 1018.5 |
| 20260503033025 | 55 | 359 | 2.0 | 4.0 | 0.00 | 0.00 | 0.00 | 70 | 1018.4 |
| 20260503031516 | 55 | 254 | 3.0 | 7.0 | 0.00 | 0.00 | 0.00 | 70 | 1018.5 |
| 20260503030014 | 55 | 247 | 4.0 | 9.0 | 0.00 | 0.00 | 0.00 | 67 | 1018.5 |
| 20260503024513 | 56 | 256 | 6.0 | 10.0 | 0.00 | 0.00 | 0.00 | 68 | 1018.6 |
| 20260503023008 | 56 | 253 | 6.0 | 9.0 | 0.00 | 0.00 | 0.00 | 67 | 1018.7 |